K7TUS-6 Weather Reports


Display with metric or nautical units.
time (UTC)temp
F
wind
direction
speed
MPH
gust
MPH
rain 1hr
in
rain 24hr
in
rain mn
in
humidity
%
barometer
mb
20210228220035 22 331 23.0 29.0 0.00 0.00 0.00 31 977.3
20210228215519 23 321 14.0 19.0 0.00 0.00 0.00 28 976.3
20210228215055 21 270 15.0 33.0 0.00 0.00 0.00 30 973.9
20210228214518 24 312 12.0 20.0 0.00 0.00 0.00 28 974.4
20210228214020 20 278 15.0 26.0 0.00 0.00 0.00 28 975.4
20210228213520 21 321 20.0 29.0 0.00 0.00 0.00 30 975.9
20210228213025 23 324 17.0 26.0 0.00 0.00 0.00 29 979.4
20210228212549 21 281 11.0 17.0 0.00 0.00 0.00 28 978.0
20210228212020 21 281 13.0 22.0 0.00 0.00 0.00 28 980.4
20210228211524 22 322 6.0 17.0 0.00 0.00 0.00 27 978.8
20210228211033 22 322 9.0 15.0 0.00 0.00 0.00 25 976.3
20210228210520 21 316 15.0 23.0 0.00 0.00 0.00 24 979.0
20210228210021 18 248 20.0 28.0 0.00 0.00 0.00 23 975.6
20210228205522 20 311 17.0 24.0 0.00 0.00 0.00 21 976.9
20210228205208 19 307 11.0 16.0 0.00 0.00 0.00 23 978.0
20210228204519 19 261 24.0 42.0 0.00 0.00 0.00 21 976.6
20210228204018 21 245 12.0 19.0 0.00 0.00 0.00 20 975.8
20210228203517 21 259 11.0 21.0 0.00 0.00 0.00 21 974.7
20210228203024 22 140 6.0 12.0 0.00 0.00 0.00 23 976.4
20210228202512 20 242 25.0 41.0 0.00 0.00 0.00 19 975.1
20210228202027 21 221 11.0 17.0 0.00 0.00 0.00 22 974.1
20210228201522 22 282 11.0 15.0 0.00 0.00 0.00 21 978.3
20210228201022 21 210 11.0 21.0 0.00 0.00 0.00 23 975.8
20210228200516 22 198 11.0 14.0 0.00 0.00 0.00 24 977.1
20210228200027 20 285 17.0 24.0 0.00 0.00 0.00 24 976.5
20210228195523 20 269 20.0 28.0 0.00 0.00 0.00 26 978.1
20210228195024 21 308 22.0 34.0 0.00 0.00 0.00 24 976.7
20210228194520 21 240 14.0 24.0 0.00 0.00 0.00 25 978.3
20210228194031 20 263 12.0 22.0 0.00 0.00 0.00 26 979.3
20210228193530 21 255 15.0 19.0 0.00 0.00 0.00 26 977.4
20210228193045 22 264 11.0 15.0 0.00 0.00 0.00 27 978.1
20210228192635 23 263 6.0 13.0 0.00 0.00 0.00 26 974.3
20210228192020 22 209 14.0 19.0 0.00 0.00 0.00 25 976.0
20210228191523 24 237 6.0 16.0 0.00 0.00 0.00 28 977.1
20210228191022 21 244 12.0 18.0 0.00 0.00 0.00 30 975.9
20210228190522 22 315 12.0 17.0 0.00 0.00 0.00 27 977.2
20210228190032 22 248 6.0 10.0 0.00 0.00 0.00 32 979.8
20210228185525 20 209 15.0 19.0 0.00 0.00 0.00 32 980.5
20210228185023 20 216 16.0 21.0 0.00 0.00 0.00 32 978.1
20210228184526 21 203 14.0 16.0 0.00 0.00 0.00 27 978.8
20210228184017 22 184 19.0 24.0 0.00 0.00 0.00 28 979.7
20210228183518 21 201 14.0 17.0 0.00 0.00 0.00 29 979.0
20210228183050 21 204 19.0 22.0 0.00 0.00 0.00 27 981.2
20210228182556 22 202 19.0 23.0 0.00 0.00 0.00 26 980.3
20210228182027 21 190 17.0 23.0 0.00 0.00 0.00 27 981.7
20210228181523 21 195 22.0 24.0 0.00 0.00 0.00 26 981.6
20210228181034 21 203 20.0 22.0 0.00 0.00 0.00 26 979.1
20210228180519 21 206 18.0 25.0 0.00 0.00 0.00 25 978.1
20210228180034 22 209 15.0 19.0 0.00 0.00 0.00 26 978.8
20210228175522 21 201 21.0 23.0 0.00 0.00 0.00 26 980.0
20210228175036 21 199 19.0 22.0 0.00 0.00 0.00 26 977.5
20210228174519 20 201 23.0 27.0 0.00 0.00 0.00 28 975.1
20210228174021 20 204 19.0 23.0 0.00 0.00 0.00 27 975.0
20210228173524 21 196 19.0 26.0 0.00 0.00 0.00 26 974.7
20210228173020 21 199 22.0 28.0 0.00 0.00 0.00 27 975.9
20210228172541 21 190 21.0 23.0 0.00 0.00 0.00 28 977.7
20210228172020 21 204 23.0 26.0 0.00 0.00 0.00 25 976.9
20210228171519 22 191 15.0 22.0 0.00 0.00 0.00 26 978.5
20210228171011 22 197 19.0 23.0 0.00 0.00 0.00 26 980.2
20210228170519 22 207 16.0 20.0 0.00 0.00 0.00 26 980.3
20210228170024 23 233 14.0 22.0 0.00 0.00 0.00 27 980.7
20210228165518 22 209 19.0 23.0 0.00 0.00 0.00 26 976.7
20210228165029 22 205 18.0 22.0 0.00 0.00 0.00 27 977.1
20210228164521 22 184 13.0 17.0 0.00 0.00 0.00 25 976.8
20210228164030 22 274 18.0 22.0 0.00 0.00 0.00 24 980.5
20210228163519 22 260 18.0 24.0 0.00 0.00 0.00 24 977.0
20210228163043 22 246 14.0 23.0 0.00 0.00 0.00 26 974.1
20210228162641 23 223 15.0 20.0 0.00 0.00 0.00 26 979.1
20210228162023 23 201 15.0 19.0 0.00 0.00 0.00 26 979.6
20210228161524 23 227 15.0 19.0 0.00 0.00 0.00 26 978.8
20210228161029 23 196 13.0 17.0 0.00 0.00 0.00 27 976.1
20210228160524 22 224 16.0 19.0 0.00 0.00 0.00 27 978.8
20210228160023 23 207 18.0 21.0 0.00 0.00 0.00 28 978.3
20210228155509 23 241 17.0 24.0 0.00 0.00 0.00 28 979.1
20210228155021 22 214 23.0 31.0 0.00 0.00 0.00 29 978.9
20210228154520 23 211 11.0 15.0 0.00 0.00 0.00 31 979.9
20210228154024 22 251 19.0 25.0 0.00 0.00 0.00 33 978.2
20210228153521 22 256 14.0 19.0 0.00 0.00 0.00 31 978.2
20210228153035 22 257 9.0 14.0 0.00 0.00 0.00 34 977.4
20210228152702 21 257 22.0 29.0 0.00 0.00 0.00 35 977.9
20210228152017 21 261 24.0 29.0 0.00 0.00 0.00 35 980.9
20210228151520 22 251 14.0 21.0 0.00 0.00 0.00 35 979.5
20210228151013 21 221 22.0 27.0 0.00 0.00 0.00 36 978.0
20210228150522 21 288 12.0 21.0 0.00 0.00 0.00 37 976.0
20210228150028 21 260 17.0 25.0 0.00 0.00 0.00 36 977.4
20210228145519 21 261 25.0 31.0 0.00 0.00 0.00 35 976.8
20210228145019 21 308 15.0 23.0 0.00 0.00 0.00 35 978.3
20210228144539 21 286 14.0 21.0 0.00 0.00 0.00 34 976.1
20210228144020 21 315 15.0 18.0 0.00 0.00 0.00 34 979.0
20210228143515 21 312 13.0 16.0 0.00 0.00 0.00 34 979.3
20210228143119 21 293 13.0 17.0 0.00 0.00 0.00 33 981.4
20210228142601 21 313 15.0 22.0 0.00 0.00 0.00 33 980.5
20210228142022 21 292 13.0 19.0 0.00 0.00 0.00 34 981.6
20210228141524 21 317 14.0 19.0 0.00 0.00 0.00 33 979.7
20210228141018 21 316 18.0 24.0 0.00 0.00 0.00 33 978.0
20210228140522 22 319 14.0 18.0 0.00 0.00 0.00 34 973.5
20210228140020 22 319 15.0 20.0 0.00 0.00 0.00 34 973.6
20210228135520 22 298 10.0 12.0 0.00 0.00 0.00 34 974.1
20210228135019 22 284 13.0 22.0 0.00 0.00 0.00 34 977.9
20210228134516 22 315 11.0 14.0 0.00 0.00 0.00 34 977.0
20210228134021 22 299 13.0 16.0 0.00 0.00 0.00 36 976.3
20210228133519 22 277 12.0 17.0 0.00 0.00 0.00 38 978.0
20210228133105 23 315 14.0 19.0 0.00 0.00 0.00 40 979.4
20210228132615 22 271 15.0 23.0 0.00 0.00 0.00 41 979.6
20210228132028 23 248 15.0 25.0 0.00 0.00 0.00 41 981.5
20210228131524 23 313 8.0 12.0 0.00 0.00 0.00 42 978.9
20210228131018 23 272 9.0 16.0 0.00 0.00 0.00 42 980.3
20210228130515 23 288 13.0 19.0 0.00 0.00 0.00 43 981.8
20210228130026 23 275 14.0 20.0 0.00 0.00 0.00 42 978.3
20210228125513 24 314 14.0 19.0 0.00 0.00 0.00 45 981.4
20210228125024 24 312 15.0 21.0 0.00 0.00 0.00 41 980.9
20210228124515 24 315 11.0 18.0 0.00 0.00 0.00 43 979.7
20210228124022 24 320 19.0 25.0 0.00 0.00 0.00 42 980.8
20210228123533 24 297 15.0 19.0 0.00 0.00 0.00 43 981.2
20210228123102 24 332 17.0 22.0 0.00 0.00 0.00 43 980.9
20210228122658 24 323 14.0 17.0 0.00 0.00 0.00 42 978.5
20210228122019 25 319 15.0 19.0 0.00 0.00 0.00 42 981.3
20210228121533 25 325 12.0 19.0 0.00 0.00 0.00 42 979.3
20210228121020 24 307 12.0 16.0 0.00 0.00 0.00 40 980.0
20210228120520 24 321 18.0 23.0 0.00 0.00 0.00 41 980.2
20210228120021 24 320 17.0 20.0 0.00 0.00 0.00 40 981.4
20210228115549 24 321 16.0 20.0 0.00 0.00 0.00 39 980.6
20210228115408 24 309 19.0 22.0 0.00 0.00 0.00 38 979.8
20210228114522 25 308 14.0 19.0 0.00 0.00 0.00 37 976.7
20210228114029 25 331 10.0 16.0 0.00 0.00 0.00 38 980.2
20210228113524 25 319 14.0 20.0 0.00 0.00 0.00 38 979.6
20210228113044 25 309 15.0 19.0 0.00 0.00 0.00 37 979.9
20210228112617 25 283 15.0 19.0 0.00 0.00 0.00 36 979.5
20210228112022 25 321 16.0 22.0 0.00 0.00 0.00 37 981.7
20210228111518 25 305 13.0 18.0 0.00 0.00 0.00 36 980.0
20210228111032 25 310 19.0 22.0 0.00 0.00 0.00 37 979.5
20210228110519 25 315 19.0 23.0 0.00 0.00 0.00 37 978.9
20210228110021 25 301 18.0 23.0 0.00 0.00 0.00 37 977.1
20210228105522 25 314 14.0 23.0 0.00 0.00 0.00 38 978.0
20210228105030 25 261 17.0 25.0 0.00 0.00 0.00 38 978.7
20210228104522 25 309 15.0 18.0 0.00 0.00 0.00 38 977.6
20210228104019 25 311 10.0 15.0 0.00 0.00 0.00 38 975.1
20210228103540 25 287 12.0 19.0 0.00 0.00 0.00 38 975.5
20210228103057 25 312 14.0 19.0 0.00 0.00 0.00 37 978.9
20210228102739 25 258 15.0 25.0 0.00 0.00 0.00 37 977.0
20210228102020 25 289 15.0 18.0 0.00 0.00 0.00 37 977.4
20210228101525 25 289 21.0 29.0 0.00 0.00 0.00 37 978.7
20210228101025 25 262 19.0 27.0 0.00 0.00 0.00 36 978.5
20210228100533 25 282 18.0 27.0 0.00 0.00 0.00 36 976.4
20210228100043 25 268 21.0 26.0 0.00 0.00 0.00 36 977.0
20210228095527 26 284 17.0 25.0 0.00 0.00 0.00 36 980.2
20210228095029 26 271 23.0 29.0 0.00 0.00 0.00 37 977.2
20210228094520 26 259 25.0 29.0 0.00 0.00 0.00 36 974.0
20210228094025 25 261 19.0 22.0 0.00 0.00 0.00 37 973.9
20210228093517 25 244 18.0 27.0 0.00 0.00 0.00 37 976.1
20210228093029 26 280 18.0 28.0 0.00 0.00 0.00 37 974.7
20210228092524 25 267 21.0 26.0 0.00 0.00 0.00 38 974.3
20210228092020 26 261 18.0 28.0 0.00 0.00 0.00 37 977.1
20210228091520 26 274 17.0 22.0 0.00 0.00 0.00 36 978.3
20210228091017 26 257 21.0 27.0 0.00 0.00 0.00 36 976.9
20210228090516 26 257 21.0 28.0 0.00 0.00 0.00 36 979.1
20210228090024 26 214 20.0 31.0 0.00 0.00 0.00 37 979.6
20210228085526 26 259 16.0 21.0 0.00 0.00 0.00 36 979.6
20210228085211 26 242 16.0 20.0 0.00 0.00 0.00 36 978.9
20210228084523 26 255 14.0 20.0 0.00 0.00 0.00 35 979.1
20210228084026 27 243 19.0 23.0 0.00 0.00 0.00 36 977.9
20210228083517 27 269 20.0 25.0 0.00 0.00 0.00 35 977.9
20210228083021 27 227 19.0 23.0 0.00 0.00 0.00 36 980.2
20210228082531 27 253 23.0 27.0 0.00 0.00 0.00 35 976.6
20210228082022 27 242 22.0 28.0 0.00 0.00 0.00 37 978.9
20210228081523 27 246 21.0 26.0 0.00 0.00 0.00 36 981.6
20210228081027 27 266 17.0 21.0 0.00 0.00 0.00 35 979.7
20210228080528 27 247 22.0 26.0 0.00 0.00 0.00 35 980.8
20210228080027 27 264 18.0 22.0 0.00 0.00 0.00 35 980.0
20210228075521 27 258 18.0 22.0 0.00 0.00 0.00 35 982.7
20210228075052 27 236 25.0 28.0 0.00 0.00 0.00 35 982.8
20210228074516 28 224 17.0 23.0 0.00 0.00 0.00 35 982.4
20210228074023 28 238 14.0 18.0 0.00 0.00 0.00 35 979.4
20210228073511 28 226 18.0 26.0 0.00 0.00 0.00 36 980.1
20210228073021 27 250 18.0 23.0 0.00 0.00 0.00 36 979.2
20210228072551 27 226 24.0 28.0 0.00 0.00 0.00 36 979.7
20210228072022 27 245 16.0 23.0 0.00 0.00 0.00 36 980.6
20210228071528 27 241 19.0 24.0 0.00 0.00 0.00 36 978.2
20210228071027 28 258 17.0 22.0 0.00 0.00 0.00 36 979.7
20210228070520 27 255 11.0 12.0 0.00 0.00 0.00 36 979.3
20210228070023 27 236 17.0 22.0 0.00 0.00 0.00 36 980.6
20210228065523 27 260 16.0 20.0 0.00 0.00 0.00 36 979.1
20210228065022 27 259 20.0 25.0 0.00 0.00 0.00 36 976.6
20210228064523 27 259 24.0 29.0 0.00 0.00 0.00 36 979.2
20210228064025 27 254 24.0 29.0 0.00 0.00 0.00 35 979.0
20210228063533 27 249 23.0 27.0 0.00 0.00 0.00 36 980.5
20210228063150 28 233 22.0 28.0 0.00 0.00 0.00 35 984.9
20210228062847 27 241 24.0 27.0 0.00 0.00 0.00 34 983.6
20210228062025 28 253 22.0 28.0 0.00 0.00 0.00 34 982.9
20210228061521 28 240 20.0 24.0 0.00 0.00 0.00 33 983.1
20210228061010 28 248 21.0 27.0 0.00 0.00 0.00 32 983.9
20210228060525 29 214 25.0 31.0 0.00 0.00 0.00 33 982.9
20210228060025 29 225 21.0 28.0 0.00 0.00 0.00 32 979.8
20210228055524 29 233 26.0 30.0 0.00 0.00 0.00 32 982.1
20210228055055 29 232 24.0 31.0 0.00 0.00 0.00 32 983.8
20210228054527 30 215 22.0 27.0 0.00 0.00 0.00 31 983.7
20210228054021 30 227 28.0 31.0 0.00 0.00 0.00 31 982.2
20210228053525 30 216 23.0 27.0 0.00 0.00 0.00 31 982.7
20210228053134 30 219 29.0 36.0 0.00 0.00 0.00 31 981.3
20210228052740 30 224 22.0 26.0 0.00 0.00 0.00 31 979.5
20210228052029 30 218 22.0 25.0 0.00 0.00 0.00 30 979.4
20210228051524 31 216 28.0 34.0 0.00 0.00 0.00 30 978.9
20210228051019 31 208 20.0 25.0 0.00 0.00 0.00 30 978.6
20210228050522 31 215 33.0 38.0 0.00 0.00 0.00 30 982.0
20210228050023 31 210 28.0 34.0 0.00 0.00 0.00 30 980.4
20210228045544 31 225 24.0 29.0 0.00 0.00 0.00 29 979.8
20210228045020 31 217 31.0 36.0 0.00 0.00 0.00 28 975.4
20210228044541 31 217 28.0 36.0 0.00 0.00 0.00 28 977.7
20210228044025 32 216 32.0 38.0 0.00 0.00 0.00 28 978.5
20210228043531 32 208 31.0 35.0 0.00 0.00 0.00 28 980.5
20210228043023 32 223 29.0 35.0 0.00 0.00 0.00 28 982.0
20210228042624 32 216 33.0 39.0 0.00 0.00 0.00 28 979.7
20210228042021 32 223 31.0 38.0 0.00 0.00 0.00 27 977.5
20210228041521 32 220 30.0 35.0 0.00 0.00 0.00 27 982.1
20210228041014 32 222 38.0 41.0 0.00 0.00 0.00 27 978.3
20210228040520 32 213 34.0 43.0 0.00 0.00 0.00 27 975.9
20210228040013 32 211 35.0 45.0 0.00 0.00 0.00 28 976.9
20210228035517 32 218 29.0 35.0 0.00 0.00 0.00 27 978.5
20210228035025 32 218 31.0 36.0 0.00 0.00 0.00 27 978.8
20210228034523 32 213 28.0 34.0 0.00 0.00 0.00 27 980.8
20210228034105 32 220 29.0 35.0 0.00 0.00 0.00 27 980.3
20210228033507 32 210 26.0 31.0 0.00 0.00 0.00 26 980.2
20210228033022 32 221 28.0 32.0 0.00 0.00 0.00 26 983.7
20210228032505 32 217 26.0 30.0 0.00 0.00 0.00 25 981.1
20210228032005 32 212 32.0 37.0 0.00 0.00 0.00 26 981.8
20210228031522 32 218 27.0 32.0 0.00 0.00 0.00 25 980.9
20210228031007 32 213 30.0 37.0 0.00 0.00 0.00 25 977.8
20210228030507 32 212 27.0 32.0 0.00 0.00 0.00 25 980.7
20210228030008 33 211 31.0 38.0 0.00 0.00 0.00 25 981.3
20210228025519 33 217 33.0 39.0 0.00 0.00 0.00 24 977.3
20210228025119 33 222 31.0 40.0 0.00 0.00 0.00 24 979.6
20210228024536 33 217 30.0 35.0 0.00 0.00 0.00 24 978.2
20210228024023 33 212 28.0 35.0 0.00 0.00 0.00 24 978.7
20210228023514 33 219 29.0 35.0 0.00 0.00 0.00 24 981.2
20210228023026 33 238 29.0 33.0 0.00 0.00 0.00 24 980.8
20210228022557 33 217 26.0 36.0 0.00 0.00 0.00 24 982.4
20210228022026 33 222 26.0 29.0 0.00 0.00 0.00 23 982.7
20210228021516 33 215 26.0 29.0 0.00 0.00 0.00 23 979.8
20210228021029 33 213 29.0 32.0 0.00 0.00 0.00 23 978.4
20210228020529 33 228 26.0 29.0 0.00 0.00 0.00 22 980.2
20210228020020 33 217 22.0 25.0 0.00 0.00 0.00 22 979.9
20210228015510 33 220 23.0 28.0 0.00 0.00 0.00 22 979.8
20210228015019 33 235 22.0 26.0 0.00 0.00 0.00 22 979.6
20210228014521 33 231 24.0 29.0 0.00 0.00 0.00 22 979.6
20210228014023 33 226 25.0 34.0 0.00 0.00 0.00 22 977.9
20210228013528 33 223 23.0 25.0 0.00 0.00 0.00 21 979.8
20210228013028 33 222 26.0 32.0 0.00 0.00 0.00 21 981.7
20210228012548 33 228 23.0 31.0 0.00 0.00 0.00 21 979.9
20210228012026 33 240 22.0 27.0 0.00 0.00 0.00 21 976.4
20210228011521 34 226 24.0 28.0 0.00 0.00 0.00 20 975.7
20210228011022 34 221 25.0 29.0 0.00 0.00 0.00 20 977.7
20210228010534 35 214 21.0 23.0 0.00 0.00 0.00 20 976.6
20210228010037 35 233 20.0 22.0 0.00 0.00 0.00 19 976.8
20210228005519 36 229 21.0 23.0 0.00 0.00 0.00 19 978.6
20210228005205 36 209 23.0 25.0 0.00 0.00 0.00 19 979.6
20210228004522 36 232 23.0 27.0 0.00 0.00 0.00 18 981.9
20210228004021 36 217 22.0 26.0 0.00 0.00 0.00 19 981.3
20210228003522 36 210 27.0 31.0 0.00 0.00 0.00 18 981.3
20210228003024 37 209 25.0 30.0 0.00 0.00 0.00 18 980.3
20210228002624 36 216 31.0 34.0 0.00 0.00 0.00 17 977.7
20210228002018 37 206 29.0 33.0 0.00 0.00 0.00 17 978.8
20210228001527 37 215 29.0 33.0 0.00 0.00 0.00 17 979.9
20210228001047 37 210 32.0 42.0 0.00 0.00 0.00 17 979.7
20210228000519 37 207 29.0 34.0 0.00 0.00 0.00 16 979.7
20210228000025 38 209 29.0 33.0 0.00 0.00 0.00 16 978.1
20210227235531 38 207 30.0 34.0 0.00 0.00 0.00 16 978.7
20210227235214 38 205 27.0 31.0 0.00 0.00 0.00 16 978.8
20210227234518 38 205 28.0 31.0 0.00 0.00 0.00 16 980.4
20210227234037 38 203 28.0 31.0 0.00 0.00 0.00 16 981.9
20210227233524 38 210 25.0 28.0 0.00 0.00 0.00 16 981.7
20210227233059 38 208 27.0 31.0 0.00 0.00 0.00 16 980.2
20210227232558 38 204 26.0 28.0 0.00 0.00 0.00 16 977.1
20210227232020 38 203 28.0 33.0 0.00 0.00 0.00 15 978.0
20210227231525 38 201 27.0 34.0 0.00 0.00 0.00 15 981.1
20210227231007 37 215 27.0 34.0 0.00 0.00 0.00 16 977.3
20210227230522 37 217 28.0 31.0 0.00 0.00 0.00 15 978.1
20210227230024 38 197 26.0 30.0 0.00 0.00 0.00 16 973.8
20210227225522 37 209 29.0 35.0 0.00 0.00 0.00 16 974.8
20210227225133 37 220 30.0 36.0 0.00 0.00 0.00 15 979.2
20210227224522 38 210 28.0 29.0 0.00 0.00 0.00 15 978.3
20210227224022 37 214 27.0 31.0 0.00 0.00 0.00 16 978.6
20210227223511 38 212 27.0 34.0 0.00 0.00 0.00 14 977.5
20210227223022 39 205 28.0 32.0 0.00 0.00 0.00 14 975.2
20210227222543 37 217 26.0 30.0 0.00 0.00 0.00 15 975.2
20210227222029 38 208 30.0 35.0 0.00 0.00 0.00 14 977.4
20210227221521 38 206 26.0 35.0 0.00 0.00 0.00 14 977.9
20210227221021 38 202 30.0 37.0 0.00 0.00 0.00 13 976.8
20210227220515 39 196 24.0 28.0 0.00 0.00 0.00 14 978.9